Regional Weather Roundup
Issued by NWS Sioux Falls, SD

Home | Current Version | Previous Version | Text Only | Print | Product List | Glossary On
Versions: 1 2 3 4 5 6 7 8 9 10 11 12 13 14 15 16 17 18 19 20 21 22 23 24 25 26 27 28 29 30 31 32 33 34 35 36 37 38 39 40 41 42 43 44 45 46 47 48 49 50
000
ASUS43 KFSD 240710
RWRFSD

WEATHER ROUNDUP FOR SE SOUTH DAKOTA/SW MINNESOTA/NW IOWA
NATIONAL WEATHER SERVICE SIOUX FALLS SD
200 AM CDT MON JUL 24 2017

NOTE: "FAIR" INDICATES FEW OR NO CLOUDS BELOW 12,000 FEET WITH NO
SIGNIFICANT WEATHER AND OR OBSTRUCTIONS TO VISIBILITY.


SDZ038>040-050-052>070-240800-
SOUTHEAST SOUTH DAKOTA

CITY           SKY/WX    TMP DP  RH WIND       PRES   REMARKS
BROOKINGS      CLEAR     61  58  90 SE5       30.04S
CHAMBERLAIN    CLEAR     66  61  84 E9        30.00S
HURON          CLEAR     64  61  90 SE10      30.00R
MADISON        FAIR      55  55 100 E7        30.04S
MITCHELL       CLEAR     64  60  87 S8        30.02R
SIOUX FALLS    CLEAR     61  59  93 E3        30.03S
WINNER         FAIR      68  57  68 SE10      30.00S
YANKTON        CLEAR     63  61  93 E3        30.03R
$$

MNZ071-072-080-081-089-090-097-098-240800-
SOUTHWEST MINNESOTA

CITY           SKY/WX    TMP DP  RH WIND       PRES   REMARKS
FAIRMONT       CLEAR     62  59  90 E3        30.04R
JACKSON        CLEAR     61  59  94 CALM      30.04S
LUVERNE        CLEAR     55  52  88 CALM      30.04S
MARSHALL       CLEAR     62  59  90 CALM      30.03S
MONTEVIDEO     PTCLDY    61  57  88 S6        30.03S
PIPESTONE      CLEAR     63  57  82 CALM      30.04S
REDWOOD FALLS  CLEAR     63  59  87 CALM      30.03R
WINDOM         CLEAR     63  59  88 CALM      30.04S
WORTHINGTON    CLEAR     57  55  93 CALM      30.05S
$$

IAZ001>003-012>014-020>022-031-032-NEZ013-014-SDZ071-240800-
NORTHWEST IOWA

CITY           SKY/WX    TMP DP  RH WIND       PRES   REMARKS
CHEROKEE       CLEAR     58  58 100 CALM      30.03S
DENISON        CLEAR     61  61 100 CALM      30.04S
ESTHERVILLE    CLEAR     60  59  96 NE5       30.03R
ORANGE CITY    CLEAR     64  61  88 CALM      30.04S
SHELDON        CLEAR     55  55 100 CALM      30.02F
SIOUX CITY     CLEAR     61  59  93 CALM      30.02S
SPENCER        CLEAR     57  56  96 NW3       30.03S
STORM LAKE     CLEAR     61  57  88 N5        30.04S
$$

ABBREVIATIONS USED IN REMARKS
   TC - TEMPERATURE IN CELSIUS
  WCI - WIND CHILL INDEX
   HX - HEAT INDEX
  VSB - VISIBILITY





USA.gov is the U.S. government's official web portal to all federal, state and local government web resources and services.